Flag for France Weather past 2 weeks in Bordeaux, France

Now
37 °F

Clear.


Feels Like: 35 °F
Forecast: 31 / 51 °F
Wind: 3 mph from North

Location: Bordeaux / Merignac

Current Time: Dec 22, 2014 at 10:03:14 PM

Latest Report: Dec 22, 2014 at 9:30 PM


Visibility: 5 mi

Pressure: 30.39 "Hg

Humidity: 93%

Dew point: 36 °F

Location of BordeauxLocation

Historic Weather in Bordeaux — Graph

°F

Bordeaux temperature yesterday

Maximum temperature yesterday: 52 °F (at 1:00 PM)
Minimum temperature yesterday: 34 °F (at 6:30 AM)
Average temperature yesterday: 41 °F

Past Weeks' High & Low Weather Summary

 TemperatureHumidityPressure
High55 °F (Dec 10, 2:30 PM)100% (Dec 7, 9:30 PM)30.66 "Hg (Dec 7, 9:30 PM)
Low30 °F (Dec 22, 3:30 AM)50% (Dec 21, 2:00 PM)29.77 "Hg (Dec 13, 3:00 AM)
Average48 °F88%30.27 "Hg
* Reported Dec 7 8:00 PM — Dec 22 8:30 PM, Bordeaux, Weather by CustomWeather, © 2014

Note: Actual official high and low records may vary slightly from our data, if they occured in-between our weather recording intervals... More about our weather records

Advertising

Bordeaux weather history for previous 24 hours

 ConditionsComfort  
Time TempWeatherWind HumidityBarometerVisibility
8:30 PM
Dec 22
41 °FClear.5 mph87%30.42 "HgN/A
8:00 PM41 °FClear.5 mph87%30.39 "HgN/A
7:30 PM41 °FClear.5 mph87%30.42 "HgN/A
7:00 PM41 °FClear.5 mph87%30.42 "HgN/A
6:30 PM43 °FClear.5 mph81%30.42 "HgN/A
6:00 PM43 °FClear.3 mph81%30.42 "HgN/A
5:30 PM45 °FClear.5 mph76%30.42 "HgN/A
5:00 PM46 °FClear.6 mph71%30.42 "HgN/A
4:30 PM48 °FClear.7 mph71%30.42 "HgN/A
4:00 PM48 °FClear.8 mph66%30.42 "HgN/A
3:30 PM48 °FClear.8 mph66%30.42 "HgN/A
3:00 PM46 °FClear.7 mph71%30.42 "HgN/A
2:30 PM46 °FClear.7 mph71%30.45 "HgN/A
2:00 PM46 °FClear.7 mph71%30.45 "HgN/A
1:30 PM46 °FClear.7 mph71%30.48 "HgN/A
1:00 PM45 °FClear.6 mph76%30.48 "HgN/A
12:30 PM45 °FClear.3 mph76%30.51 "HgN/A
12:00 PM43 °FClear.3 mph81%30.51 "HgN/A
11:30 AM41 °FClear.3 mph87%30.51 "HgN/A
11:00 AM39 °FClear.2 mph87%30.51 "Hg4 mi
10:30 AM39 °FFog.No wind93%30.51 "Hg3 mi
10:00 AM36 °FFog.No wind100%30.51 "Hg2 mi
9:30 AM34 °FFog.2 mph93%30.51 "Hg2 mi
9:00 AM32 °FLight fog.2 mph93%30.51 "Hg1 mi
8:30 AM32 °FIce fog.3 mph93%30.51 "Hg2 mi
8:00 AM32 °FIce fog.2 mph100%30.51 "Hg1 mi
7:30 AM30 °FIce fog.No wind100%30.51 "Hg1 mi
7:00 AM30 °FLight fog.3 mph100%30.51 "Hg2 mi
6:30 AM30 °FLight fog.1 mph93%30.51 "Hg2 mi
6:00 AM30 °FLight fog.No wind93%30.51 "Hg2 mi
5:30 AM30 °FLight fog.No wind93%30.51 "Hg2 mi
4:30 AM30 °FLight fog.No wind93%30.51 "Hg1 mi
4:00 AM30 °FLight fog.1 mph93%30.51 "Hg1 mi
3:30 AM30 °FLight fog.No wind100%30.54 "Hg2 mi
3:00 AM32 °FLight fog.2 mph93%30.54 "Hg3 mi
2:30 AM32 °FClear.No wind93%30.54 "Hg5 mi
2:00 AM32 °FLight fog.No wind100%30.54 "Hg2 mi
1:30 AM32 °FLight fog.No wind100%30.54 "Hg2 mi
1:00 AM32 °FLight fog.No wind93%30.54 "Hg3 mi
12:30 AM34 °FClear.No wind93%30.57 "HgN/A
12:00 AM34 °FFog.1 mph93%30.57 "Hg2 mi
11:30 PM
Dec 21
36 °FFog.1 mph93%30.57 "Hg3 mi
10:30 PM36 °FClear.No wind93%30.57 "Hg5 mi
10:00 PM36 °FClear.No wind93%30.57 "Hg4 mi
Weather by CustomWeather, © 2014

See weather overviewHow to use our weather pages